Time,TemperatureF,DewpointF,PressureIn,WindDirection,WindDirectionDegrees,WindSpeedMPH,WindSpeedGustMPH,Humidity,HourlyPrecipIn,Conditions,Clouds,dailyrainin,SoftwareType,DateUTC
2013-04-12 00:00:00,28.7,26.1,29.74,North,0,2.0,14.0,90,0.00,,SKC,0.00,VWS V14.01,2013-04-12 05:00:00,
2013-04-12 00:01:00,28.7,26.0,29.74,North,355,0.0,-999.0,90,-99.99,,,0.00,weatherlink.com 1.10,2013-04-12 05:01:00,
2013-04-12 00:16:00,28.6,26.0,29.73,NNE,33,0.0,-999.0,89,-99.99,,,0.00,weatherlink.com 1.10,2013-04-12 05:16:00,
2013-04-12 00:30:00,28.5,25.7,29.73,NNE,22,2.0,11.0,89,0.00,,SKC,0.00,VWS V14.01,2013-04-12 05:30:00,
2013-04-12 00:31:00,28.5,26.0,29.73,NE,38,0.0,-999.0,89,-99.99,,,0.00,weatherlink.com 1.10,2013-04-12 05:31:00,
2013-04-12 00:47:00,28.3,26.0,29.73,NNE,17,0.0,-999.0,89,-99.99,,,0.00,weatherlink.com 1.10,2013-04-12 05:47:00,
2013-04-12 01:00:00,28.2,25.4,29.73,NE,45,2.0,10.0,89,0.00,,SKC,0.00,VWS V14.01,2013-04-12 06:00:00,
2013-04-12 01:01:00,28.2,25.0,29.73,North,355,2.0,-999.0,89,-99.99,,,0.00,weatherlink.com 1.10,2013-04-12 06:01:00,
2013-04-12 01:16:00,28.1,26.0,29.73,North,355,0.0,-999.0,90,-99.99,,,0.00,weatherlink.com 1.10,2013-04-12 06:16:00,
2013-04-12 01:30:00,27.9,25.6,29.72,North,0,1.0,8.0,91,0.00,,SKC,0.00,VWS V14.01,2013-04-12 06:30:00,
2013-04-12 01:31:00,27.9,26.0,29.72,ENE,77,3.0,-999.0,91,-99.99,,,0.00,weatherlink.com 1.10,2013-04-12 06:31:00,
2013-04-12 01:46:00,27.9,26.0,29.71,NW,317,5.0,-999.0,91,-99.99,,,0.00,weatherlink.com 1.10,2013-04-12 06:46:00,
2013-04-12 02:00:00,27.8,25.5,29.72,North,0,1.0,9.0,91,0.00,,SKC,0.00,VWS V14.01,2013-04-12 07:00:00,
2013-04-12 02:01:00,27.8,26.0,29.71,North,355,0.0,-999.0,91,-99.99,,,0.00,weatherlink.com 1.10,2013-04-12 07:01:00,
2013-04-12 02:30:00,27.8,25.5,29.71,NNW,338,1.0,6.0,91,0.00,,SKC,0.00,VWS V14.01,2013-04-12 07:30:00,
2013-04-12 02:32:00,27.8,26.0,29.71,NNW,331,1.0,-999.0,91,-99.99,,,0.00,weatherlink.com 1.10,2013-04-12 07:32:00,
2013-04-12 02:47:00,27.9,26.0,29.71,NW,321,0.0,-999.0,91,-99.99,,,0.00,weatherlink.com 1.10,2013-04-12 07:47:00,
2013-04-12 03:00:00,27.8,25.5,29.70,NNW,338,1.0,8.0,91,0.00,,SKC,0.00,VWS V14.01,2013-04-12 08:00:00,
2013-04-12 03:02:00,27.8,26.0,29.71,NNW,329,2.0,-999.0,91,-99.99,,,0.00,weatherlink.com 1.10,2013-04-12 08:02:00,
2013-04-12 03:17:00,27.9,26.0,29.71,NNW,340,0.0,-999.0,91,-99.99,,,0.00,weatherlink.com 1.10,2013-04-12 08:17:00,
2013-04-12 03:30:00,27.9,25.6,29.70,NNW,338,1.0,9.0,91,0.00,,SKC,0.00,VWS V14.01,2013-04-12 08:30:00,
2013-04-12 03:32:00,27.9,26.0,29.70,NNW,340,0.0,-999.0,91,-99.99,,,0.00,weatherlink.com 1.10,2013-04-12 08:32:00,
2013-04-12 03:47:00,27.9,26.0,29.70,NW,314,0.0,-999.0,91,-99.99,,,0.00,weatherlink.com 1.10,2013-04-12 08:47:00,
2013-04-12 04:00:00,27.9,25.6,29.71,NW,315,1.0,8.0,91,0.00,,SKC,0.00,VWS V14.01,2013-04-12 09:00:00,
2013-04-12 04:02:00,27.9,26.0,29.71,NNW,338,0.0,-999.0,91,-99.99,,,0.00,weatherlink.com 1.10,2013-04-12 09:02:00,
2013-04-12 04:17:00,28.0,26.0,29.70,NNW,340,2.0,-999.0,91,-99.99,,,0.00,weatherlink.com 1.10,2013-04-12 09:17:00,
2013-04-12 04:30:00,28.0,25.7,29.70,NNW,338,0.0,5.0,91,0.00,,SKC,0.00,VWS V14.01,2013-04-12 09:30:00,
2013-04-12 04:32:00,28.0,26.0,29.70,North,5,0.0,-999.0,91,-99.99,,,0.00,weatherlink.com 1.10,2013-04-12 09:32:00,
2013-04-12 04:47:00,28.0,26.0,29.70,NNW,329,0.0,-999.0,92,-99.99,,,0.00,weatherlink.com 1.10,2013-04-12 09:47:00,
2013-04-12 05:00:00,28.0,26.2,29.70,NNW,338,0.0,2.0,93,0.00,,SKC,0.00,VWS V14.01,2013-04-12 10:00:00,
2013-04-12 05:02:00,27.9,26.0,29.70,NNE,30,0.0,-999.0,93,-99.99,,,0.00,weatherlink.com 1.10,2013-04-12 10:02:00,
2013-04-12 05:17:00,27.9,26.0,29.69,NNE,30,0.0,-999.0,93,-99.99,,,0.00,weatherlink.com 1.10,2013-04-12 10:17:00,
2013-04-12 05:30:00,27.9,26.1,29.70,NW,315,0.0,4.0,93,0.00,,SKC,0.00,VWS V14.01,2013-04-12 10:30:00,
2013-04-12 05:32:00,27.9,26.0,29.70,NNW,342,0.0,-999.0,94,-99.99,,,0.00,weatherlink.com 1.10,2013-04-12 10:32:00,
2013-04-12 05:47:00,28.0,27.0,29.69,NW,313,0.0,-999.0,94,-99.99,,,0.00,weatherlink.com 1.10,2013-04-12 10:47:00,
2013-04-12 06:00:00,28.0,26.5,29.69,NW,315,0.0,4.0,94,0.00,,SKC,0.00,VWS V14.01,2013-04-12 11:00:00,
2013-04-12 06:02:00,28.0,27.0,29.69,NW,313,0.0,-999.0,94,-99.99,,,0.00,weatherlink.com 1.10,2013-04-12 11:02:00,
2013-04-12 06:17:00,28.0,27.0,29.69,NW,313,0.0,-999.0,94,-99.99,,,0.00,weatherlink.com 1.10,2013-04-12 11:17:00,
2013-04-12 06:30:00,27.9,26.4,29.69,NW,315,0.0,4.0,94,0.00,,SKC,0.00,VWS V14.01,2013-04-12 11:30:00,
2013-04-12 06:32:00,27.9,26.0,29.69,NW,313,0.0,-999.0,94,-99.99,,,0.00,weatherlink.com 1.10,2013-04-12 11:32:00,
2013-04-12 06:47:00,27.8,26.0,29.70,NW,313,0.0,-999.0,94,-99.99,,,0.00,weatherlink.com 1.10,2013-04-12 11:47:00,
2013-04-12 07:00:00,27.8,26.3,29.70,NW,315,0.0,1.0,94,0.00,,SKC,0.00,VWS V14.01,2013-04-12 12:00:00,
2013-04-12 07:02:00,27.8,26.0,29.70,NW,313,1.0,-999.0,94,-99.99,,,0.00,weatherlink.com 1.10,2013-04-12 12:02:00,
2013-04-12 07:17:00,28.0,27.0,29.69,NW,313,0.0,-999.0,94,-99.99,,,0.00,weatherlink.com 1.10,2013-04-12 12:17:00,
2013-04-12 07:30:00,28.2,26.7,29.69,NW,315,0.0,4.0,94,0.00,,SKC,0.00,VWS V14.01,2013-04-12 12:30:00,
2013-04-12 07:32:00,28.3,27.0,29.69,NNW,336,0.0,-999.0,94,-99.99,,,0.00,weatherlink.com 1.10,2013-04-12 12:32:00,
2013-04-12 07:47:00,28.7,27.0,29.69,NW,311,2.0,-999.0,94,-99.99,,,0.00,weatherlink.com 1.10,2013-04-12 12:47:00,
2013-04-12 08:00:00,29.0,27.5,29.70,NNW,338,0.0,5.0,94,0.00,,SKC,0.00,VWS V14.01,2013-04-12 13:00:00,
2013-04-12 08:17:00,29.2,28.0,29.70,NW,315,2.0,-999.0,94,-99.99,,,0.00,weatherlink.com 1.10,2013-04-12 13:17:00,
2013-04-12 08:30:00,29.4,27.6,29.69,NW,315,1.0,6.0,93,0.00,,SKC,0.00,VWS V14.01,2013-04-12 13:30:00,
2013-04-12 08:32:00,29.4,28.0,29.70,NNW,338,0.0,-999.0,93,-99.99,,,0.00,weatherlink.com 1.10,2013-04-12 13:32:00,
2013-04-12 08:47:00,29.7,28.0,29.70,NNW,328,4.0,-999.0,93,-99.99,,,0.00,weatherlink.com 1.10,2013-04-12 13:47:00,
2013-04-12 09:00:00,30.1,28.3,29.70,NW,315,1.0,5.0,93,0.00,,SKC,0.00,VWS V14.01,2013-04-12 14:00:00,
2013-04-12 09:02:00,30.1,28.0,29.70,NW,323,0.0,-999.0,93,-99.99,,,0.00,weatherlink.com 1.10,2013-04-12 14:02:00,
2013-04-12 09:17:00,30.6,29.0,29.70,NW,317,0.0,-999.0,92,-99.99,,,0.00,weatherlink.com 1.10,2013-04-12 14:17:00,
2013-04-12 09:30:00,31.0,28.4,29.70,NW,315,1.0,7.0,90,0.00,,SKC,0.00,VWS V14.01,2013-04-12 14:30:00,
2013-04-12 09:32:00,31.1,29.0,29.70,NW,305,1.0,-999.0,90,-99.99,,,0.00,weatherlink.com 1.10,2013-04-12 14:32:00,
2013-04-12 09:47:00,31.6,29.0,29.70,NW,313,0.0,-999.0,89,-99.99,,,0.00,weatherlink.com 1.10,2013-04-12 14:47:00,
2013-04-12 10:00:00,31.9,29.0,29.70,NW,315,1.0,8.0,89,0.00,,SKC,0.00,VWS V14.01,2013-04-12 15:00:00,
2013-04-12 10:02:00,32.0,29.0,29.70,WNW,285,0.0,-999.0,89,-99.99,,,0.00,weatherlink.com 1.10,2013-04-12 15:02:00,
2013-04-12 10:17:00,32.4,29.0,29.71,NW,316,4.0,-999.0,88,-99.99,,,0.00,weatherlink.com 1.10,2013-04-12 15:17:00,
2013-04-12 10:30:00,32.5,28.8,29.71,NW,315,1.0,10.0,86,0.00,,SKC,0.00,VWS V14.01,2013-04-12 15:30:00,
2013-04-12 10:32:00,32.5,29.0,29.71,NNW,333,0.0,-999.0,86,-99.99,,,0.00,weatherlink.com 1.10,2013-04-12 15:32:00,
2013-04-12 10:47:00,33.0,29.0,29.71,NNW,337,2.0,-999.0,84,-99.99,,,0.00,weatherlink.com 1.10,2013-04-12 15:47:00,
2013-04-12 11:00:00,33.2,28.3,29.71,NNW,338,2.0,9.0,82,0.00,,SKC,0.00,VWS V14.01,2013-04-12 16:00:00,
2013-04-12 11:02:00,33.2,28.0,29.71,ENE,59,3.0,-999.0,81,-99.99,,,0.00,weatherlink.com 1.10,2013-04-12 16:02:00,
2013-04-12 11:17:00,33.7,28.0,29.72,NW,326,2.0,-999.0,81,-99.99,,,0.01,weatherlink.com 1.10,2013-04-12 16:17:00,
2013-04-12 11:30:00,33.7,27.9,29.72,NNW,338,2.0,9.0,79,0.02,,SKC,0.02,VWS V14.01,2013-04-12 16:30:00,
2013-04-12 11:32:00,33.7,28.0,29.72,East,81,5.0,-999.0,79,-99.99,,,0.02,weatherlink.com 1.10,2013-04-12 16:32:00,
2013-04-12 11:47:00,34.2,28.0,29.72,NNW,331,0.0,-999.0,78,-99.99,,,0.03,weatherlink.com 1.10,2013-04-12 16:47:00,
2013-04-12 12:00:00,34.7,28.5,29.72,NW,315,1.0,8.0,78,0.04,,SKC,0.04,VWS V14.01,2013-04-12 17:00:00,
2013-04-12 12:02:00,34.6,28.0,29.72,NNE,26,3.0,-999.0,77,-99.99,,,0.04,weatherlink.com 1.10,2013-04-12 17:02:00,
2013-04-12 12:17:00,34.4,28.0,29.72,NNW,347,0.0,-999.0,77,-99.99,,,0.05,weatherlink.com 1.10,2013-04-12 17:17:00,
2013-04-12 12:30:00,34.4,28.3,29.72,NW,315,2.0,9.0,78,0.06,,SKC,0.06,VWS V14.01,2013-04-12 17:30:00,
2013-04-12 12:32:00,34.6,28.0,29.72,NW,319,4.0,-999.0,78,-99.99,,,0.06,weatherlink.com 1.10,2013-04-12 17:32:00,
2013-04-12 12:48:00,34.4,28.0,29.72,North,350,6.0,-999.0,78,-99.99,,,0.07,weatherlink.com 1.10,2013-04-12 17:48:00,
2013-04-12 13:00:00,33.6,28.7,29.73,NW,315,3.0,14.0,82,0.05,,SKC,0.07,VWS V14.01,2013-04-12 18:00:00,
2013-04-12 13:30:00,32.8,29.6,29.73,NW,315,2.0,11.0,88,0.04,,SKC,0.08,VWS V14.01,2013-04-12 18:30:00,
2013-04-12 14:00:00,34.2,28.4,29.73,NW,315,2.0,12.0,79,0.04,,SKC,0.10,VWS V14.01,2013-04-12 19:00:00,
2013-04-12 14:30:00,35.0,28.2,29.73,NNW,338,1.0,7.0,76,0.04,,SKC,0.11,VWS V14.01,2013-04-12 19:30:00,
2013-04-12 14:32:00,35.0,28.0,29.73,NW,325,2.0,-999.0,76,-99.99,,,0.11,weatherlink.com 1.10,2013-04-12 19:32:00,
2013-04-12 14:47:00,35.4,28.0,29.73,NW,326,0.0,-999.0,75,-99.99,,,0.11,weatherlink.com 1.10,2013-04-12 19:47:00,
2013-04-12 15:00:00,35.8,27.7,29.73,NW,315,1.0,8.0,72,0.04,,SKC,0.12,VWS V14.01,2013-04-12 20:00:00,
2013-04-12 15:03:00,35.8,27.0,29.73,NNW,336,6.0,-999.0,70,-99.99,,,0.12,weatherlink.com 1.10,2013-04-12 20:03:00,
2013-04-12 15:18:00,35.9,26.0,29.74,NW,311,0.0,-999.0,68,-99.99,,,0.12,weatherlink.com 1.10,2013-04-12 20:18:00,
2013-04-12 15:33:00,35.9,26.0,29.74,NW,317,1.0,-999.0,68,-99.99,,,0.13,weatherlink.com 1.10,2013-04-12 20:33:00,
2013-04-12 15:48:00,35.7,26.0,29.75,NW,326,5.0,-999.0,69,-99.99,,,0.13,weatherlink.com 1.10,2013-04-12 20:48:00,
2013-04-12 15:53:00,35.7,26.9,29.75,North,5,0.0,11.0,70,0.03,,SKC,0.13,VWS V14.01,2013-04-12 20:53:00,
2013-04-12 15:58:00,35.6,26.8,29.75,NNW,329,0.0,11.0,70,0.03,,SKC,0.13,VWS V14.01,2013-04-12 20:58:00,
2013-04-12 16:03:00,35.4,26.6,29.75,NNW,333,5.0,10.0,70,0.01,,SKC,0.13,VWS V14.01,2013-04-12 21:03:00,
2013-04-12 16:08:00,35.3,26.5,29.75,NW,310,4.0,12.0,70,0.01,,SKC,0.13,VWS V14.01,2013-04-12 21:08:00,
2013-04-12 16:13:00,35.3,27.2,29.75,NNW,346,0.0,12.0,72,0.02,,SKC,0.14,VWS V14.01,2013-04-12 21:13:00,
2013-04-12 16:18:00,35.4,27.3,29.75,North,355,0.0,12.0,72,0.02,,SKC,0.14,VWS V14.01,2013-04-12 21:18:00,
2013-04-12 16:23:00,35.3,27.2,29.75,NNW,341,0.0,12.0,72,0.02,,SKC,0.14,VWS V14.01,2013-04-12 21:23:00,
2013-04-12 16:28:00,35.2,27.1,29.75,NW,319,4.0,12.0,72,0.02,,SKC,0.14,VWS V14.01,2013-04-12 21:28:00,
2013-04-12 16:33:00,35.0,27.2,29.75,NNW,341,4.0,8.0,73,0.01,,SKC,0.14,VWS V14.01,2013-04-12 21:33:00,
2013-04-12 16:38:00,35.0,26.9,29.76,NNW,340,2.0,11.0,72,0.01,,SKC,0.14,VWS V14.01,2013-04-12 21:38:00,
2013-04-12 16:43:00,35.1,27.0,29.76,NW,323,6.0,11.0,72,0.01,,SKC,0.14,VWS V14.01,2013-04-12 21:43:00,
2013-04-12 16:48:00,35.2,26.8,29.76,NW,323,7.0,11.0,71,0.01,,SKC,0.14,VWS V14.01,2013-04-12 21:48:00,
2013-04-12 16:53:00,35.1,26.7,29.76,NNW,337,4.0,11.0,71,0.01,,SKC,0.14,VWS V14.01,2013-04-12 21:53:00,
2013-04-12 16:58:00,35.0,26.2,29.76,NNW,342,4.0,11.0,70,0.01,,SKC,0.14,VWS V14.01,2013-04-12 21:58:00,
2013-04-12 17:03:00,34.9,26.5,29.77,NW,323,6.0,11.0,71,0.01,,SKC,0.14,VWS V14.01,2013-04-12 22:03:00,
2013-04-12 17:08:00,34.6,25.8,29.77,NW,323,0.0,11.0,70,0.01,,SKC,0.14,VWS V14.01,2013-04-12 22:08:00,
2013-04-12 17:13:00,34.6,25.8,29.77,North,5,3.0,11.0,70,0.01,,SKC,0.14,VWS V14.01,2013-04-12 22:13:00,
2013-04-12 17:18:00,34.6,26.2,29.77,NNW,342,0.0,11.0,71,0.01,,SKC,0.14,VWS V14.01,2013-04-12 22:18:00,
2013-04-12 17:23:00,34.7,25.9,29.77,NNW,330,4.0,11.0,70,0.01,,SKC,0.14,VWS V14.01,2013-04-12 22:23:00,
2013-04-12 17:28:00,34.6,25.8,29.77,NNW,331,2.0,11.0,70,0.01,,SKC,0.14,VWS V14.01,2013-04-12 22:28:00,
2013-04-12 17:33:00,34.7,26.3,29.78,North,5,3.0,4.0,71,0.01,,SKC,0.15,VWS V14.01,2013-04-12 22:33:00,
2013-04-12 17:38:00,34.6,25.8,29.78,NNW,333,10.0,10.0,70,0.01,,SKC,0.15,VWS V14.01,2013-04-12 22:38:00,
2013-04-12 17:43:00,34.6,26.2,29.78,NE,40,0.0,10.0,71,0.01,,SKC,0.15,VWS V14.01,2013-04-12 22:43:00,
2013-04-12 17:48:00,34.5,26.4,29.78,NNW,339,0.0,10.0,72,0.01,,SKC,0.15,VWS V14.01,2013-04-12 22:48:00,
2013-04-12 17:53:00,34.3,26.2,29.78,NW,304,2.0,10.0,72,0.01,,SKC,0.15,VWS V14.01,2013-04-12 22:53:00,
2013-04-12 17:58:00,34.2,26.1,29.79,WNW,284,1.0,10.0,72,0.01,,SKC,0.15,VWS V14.01,2013-04-12 22:58:00,
2013-04-12 18:03:00,34.2,25.8,29.79,NNW,342,1.0,9.0,71,0.01,,SKC,0.15,VWS V14.01,2013-04-12 23:03:00,
2013-04-12 18:08:00,34.0,25.9,29.79,NW,304,0.0,9.0,72,0.01,,SKC,0.15,VWS V14.01,2013-04-12 23:08:00,
2013-04-12 18:13:00,33.9,25.8,29.79,North,9,0.0,9.0,72,0.01,,SKC,0.15,VWS V14.01,2013-04-12 23:13:00,
2013-04-12 18:18:00,33.7,25.6,29.79,NNW,331,5.0,9.0,72,0.01,,SKC,0.15,VWS V14.01,2013-04-12 23:18:00,
2013-04-12 18:23:00,33.6,25.9,29.79,NNW,338,2.0,9.0,73,0.01,,SKC,0.15,VWS V14.01,2013-04-12 23:23:00,
2013-04-12 18:28:00,33.4,25.7,29.80,NW,324,4.0,9.0,73,0.01,,SKC,0.15,VWS V14.01,2013-04-12 23:28:00,
2013-04-12 18:33:00,33.2,25.5,29.80,NNW,339,8.0,8.0,73,0.01,,SKC,0.15,VWS V14.01,2013-04-12 23:33:00,
2013-04-12 18:38:00,33.1,25.7,29.80,NW,304,4.0,8.0,74,0.01,,SKC,0.15,VWS V14.01,2013-04-12 23:38:00,
2013-04-12 18:43:00,33.1,25.4,29.80,NNE,30,1.0,8.0,73,0.01,,SKC,0.15,VWS V14.01,2013-04-12 23:43:00,
2013-04-12 18:48:00,33.0,25.6,29.80,North,360,4.0,8.0,74,0.01,,SKC,0.15,VWS V14.01,2013-04-12 23:48:00,
2013-04-12 18:53:00,33.0,25.6,29.80,NW,326,0.0,8.0,74,0.01,,SKC,0.15,VWS V14.01,2013-04-12 23:53:00,
2013-04-12 18:58:00,32.8,25.8,29.80,NE,34,0.0,8.0,75,0.01,,SKC,0.15,VWS V14.01,2013-04-12 23:58:00,
2013-04-12 19:03:00,32.6,25.9,29.80,NW,320,5.0,6.0,76,0.00,,SKC,0.15,VWS V14.01,2013-04-13 00:03:00,
2013-04-12 19:08:00,32.6,26.2,29.80,NNW,338,6.0,6.0,77,0.00,,SKC,0.15,VWS V14.01,2013-04-13 00:08:00,
2013-04-12 19:13:00,32.4,26.3,29.80,NW,323,0.0,7.0,78,0.00,,SKC,0.15,VWS V14.01,2013-04-13 00:13:00,
2013-04-12 19:18:00,32.2,26.4,29.80,NNE,18,2.0,7.0,79,0.00,,SKC,0.15,VWS V14.01,2013-04-13 00:18:00,
2013-04-12 19:23:00,32.0,26.2,29.81,NNW,332,0.0,7.0,79,0.00,,SKC,0.15,VWS V14.01,2013-04-13 00:23:00,
2013-04-12 19:28:00,31.9,26.4,29.81,NW,320,4.0,7.0,80,0.00,,SKC,0.15,VWS V14.01,2013-04-13 00:28:00,
2013-04-12 19:33:00,31.7,26.5,29.81,NNW,340,0.0,5.0,81,0.00,,SKC,0.15,VWS V14.01,2013-04-13 00:33:00,
2013-04-12 19:38:00,31.6,26.8,29.81,NW,319,2.0,5.0,82,0.00,,SKC,0.15,VWS V14.01,2013-04-13 00:38:00,
2013-04-12 19:43:00,31.4,26.5,29.81,NNW,341,0.0,6.0,82,0.00,,SKC,0.15,VWS V14.01,2013-04-13 00:43:00,
2013-04-12 19:48:00,31.3,26.8,29.81,NW,317,2.0,7.0,83,0.00,,SKC,0.15,VWS V14.01,2013-04-13 00:48:00,
2013-04-12 19:53:00,31.2,26.9,29.81,NNW,332,1.0,7.0,84,0.00,,SKC,0.15,VWS V14.01,2013-04-13 00:53:00,
2013-04-12 19:58:00,31.0,26.7,29.81,NNW,331,2.0,7.0,84,0.00,,SKC,0.15,VWS V14.01,2013-04-13 00:58:00,
2013-04-12 20:03:00,30.9,26.9,29.81,WNW,302,0.0,9.0,85,0.00,,SKC,0.15,VWS V14.01,2013-04-13 01:03:00,
2013-04-12 20:08:00,30.8,26.8,29.81,NW,326,4.0,9.0,85,0.00,,SKC,0.15,VWS V14.01,2013-04-13 01:08:00,
2013-04-12 20:13:00,30.7,26.7,29.82,NW,319,4.0,9.0,85,0.00,,SKC,0.15,VWS V14.01,2013-04-13 01:13:00,
2013-04-12 20:18:00,30.7,26.7,29.82,NW,316,0.0,9.0,85,0.00,,SKC,0.15,VWS V14.01,2013-04-13 01:18:00,
2013-04-12 20:23:00,30.6,26.6,29.82,NW,306,0.0,9.0,85,0.00,,SKC,0.15,VWS V14.01,2013-04-13 01:23:00,
2013-04-12 20:28:00,30.5,26.2,29.82,NW,319,0.0,9.0,84,0.00,,SKC,0.15,VWS V14.01,2013-04-13 01:28:00,
2013-04-12 20:33:00,30.5,26.2,29.82,NW,313,1.0,6.0,84,0.00,,SKC,0.15,VWS V14.01,2013-04-13 01:33:00,
2013-04-12 20:38:00,30.4,26.1,29.82,NE,41,1.0,6.0,84,0.00,,SKC,0.15,VWS V14.01,2013-04-13 01:38:00,
2013-04-12 20:43:00,30.3,26.1,29.82,NNW,333,0.0,7.0,84,0.00,,SKC,0.15,VWS V14.01,2013-04-13 01:43:00,
2013-04-12 20:48:00,30.3,26.3,29.82,NW,316,0.0,7.0,85,0.00,,SKC,0.15,VWS V14.01,2013-04-13 01:48:00,
2013-04-12 20:53:00,30.2,26.0,29.82,NW,306,0.0,7.0,84,0.00,,SKC,0.15,VWS V14.01,2013-04-13 01:53:00,
2013-04-12 20:58:00,30.2,26.0,29.82,NW,306,0.0,7.0,84,0.00,,SKC,0.15,VWS V14.01,2013-04-13 01:58:00,
2013-04-12 21:03:00,30.1,25.9,29.82,NNW,330,0.0,6.0,84,0.00,,SKC,0.15,VWS V14.01,2013-04-13 02:03:00,
2013-04-12 21:08:00,30.0,25.8,29.82,NNW,341,0.0,6.0,84,0.00,,SKC,0.15,VWS V14.01,2013-04-13 02:08:00,
2013-04-12 21:13:00,30.0,25.8,29.83,WNW,286,0.0,6.0,84,0.00,,SKC,0.15,VWS V14.01,2013-04-13 02:13:00,
2013-04-12 21:18:00,29.9,26.0,29.83,NW,315,4.0,6.0,85,0.00,,SKC,0.15,VWS V14.01,2013-04-13 02:18:00,
2013-04-12 21:23:00,29.8,25.9,29.83,WNW,300,0.0,6.0,85,0.00,,SKC,0.15,VWS V14.01,2013-04-13 02:23:00,
2013-04-12 21:28:00,29.7,25.8,29.83,WNW,300,0.0,6.0,85,0.00,,SKC,0.15,VWS V14.01,2013-04-13 02:28:00,
2013-04-12 21:33:00,29.6,25.9,29.83,NW,307,4.0,6.0,86,0.00,,SKC,0.15,VWS V14.01,2013-04-13 02:33:00,
2013-04-12 21:38:00,29.5,25.8,29.83,NW,323,4.0,6.0,86,0.00,,SKC,0.15,VWS V14.01,2013-04-13 02:38:00,
2013-04-12 21:43:00,29.5,25.8,29.83,NW,310,1.0,6.0,86,0.00,,SKC,0.15,VWS V14.01,2013-04-13 02:43:00,
2013-04-12 21:48:00,29.5,25.8,29.83,NW,323,1.0,6.0,86,0.00,,SKC,0.15,VWS V14.01,2013-04-13 02:48:00,
2013-04-12 21:53:00,29.4,25.7,29.84,NW,312,0.0,6.0,86,0.00,,SKC,0.15,VWS V14.01,2013-04-13 02:53:00,
2013-04-12 21:58:00,29.4,25.7,29.84,NW,313,0.0,6.0,86,0.00,,SKC,0.15,VWS V14.01,2013-04-13 02:58:00,
2013-04-12 22:03:00,29.4,25.7,29.84,NW,313,0.0,4.0,86,0.00,,SKC,0.15,VWS V14.01,2013-04-13 03:03:00,
2013-04-12 22:08:00,29.3,25.6,29.84,NW,313,0.0,4.0,86,0.00,,SKC,0.15,VWS V14.01,2013-04-13 03:08:00,
2013-04-12 22:13:00,29.2,25.5,29.84,NW,313,0.0,4.0,86,0.00,,SKC,0.15,VWS V14.01,2013-04-13 03:13:00,
2013-04-12 22:18:00,29.2,25.3,29.84,NW,313,0.0,4.0,85,0.00,,SKC,0.15,VWS V14.01,2013-04-13 03:18:00,
2013-04-12 22:23:00,29.2,25.5,29.84,NW,313,0.0,4.0,86,0.00,,SKC,0.15,VWS V14.01,2013-04-13 03:23:00,
2013-04-12 22:28:00,29.2,25.5,29.84,NW,313,0.0,4.0,86,0.00,,SKC,0.15,VWS V14.01,2013-04-13 03:28:00,
2013-04-12 22:33:00,29.1,25.4,29.84,NW,313,0.0,0.0,86,0.00,,SKC,0.15,VWS V14.01,2013-04-13 03:33:00,
2013-04-12 22:38:00,29.1,25.4,29.84,NW,313,0.0,1.0,86,0.00,,SKC,0.15,VWS V14.01,2013-04-13 03:38:00,
2013-04-12 22:43:00,29.0,25.4,29.84,NW,313,0.0,1.0,86,0.00,,SKC,0.15,VWS V14.01,2013-04-13 03:43:00,
2013-04-12 22:48:00,29.0,25.6,29.84,NW,313,0.0,1.0,87,0.00,,SKC,0.15,VWS V14.01,2013-04-13 03:48:00,
2013-04-12 22:53:00,28.9,25.5,29.84,NW,313,0.0,1.0,87,0.00,,SKC,0.15,VWS V14.01,2013-04-13 03:53:00,
2013-04-12 22:58:00,28.9,25.5,29.84,NW,313,0.0,1.0,87,0.00,,SKC,0.15,VWS V14.01,2013-04-13 03:58:00,
2013-04-12 23:00:00,28.9,25.5,29.84,NW,313,0.0,0.0,87,0.00,,SKC,0.15,VWS V14.01,2013-04-13 04:00:00,
2013-04-12 23:05:00,28.8,25.4,29.84,NW,313,0.0,0.0,87,0.00,,SKC,0.15,VWS V14.01,2013-04-13 04:05:00,
2013-04-12 23:10:00,28.8,25.4,29.84,NW,313,0.0,2.0,87,0.00,,SKC,0.15,VWS V14.01,2013-04-13 04:10:00,
2013-04-12 23:15:00,28.7,25.3,29.84,NW,313,0.0,2.0,87,0.00,,SKC,0.15,VWS V14.01,2013-04-13 04:15:00,
2013-04-12 23:20:00,28.7,25.6,29.84,NW,313,0.0,2.0,88,0.00,,SKC,0.15,VWS V14.01,2013-04-13 04:20:00,
2013-04-12 23:25:00,28.6,25.5,29.84,NW,313,0.0,2.0,88,0.00,,SKC,0.15,VWS V14.01,2013-04-13 04:25:00,
2013-04-12 23:30:00,28.6,25.5,29.83,NW,313,0.0,0.0,88,0.00,,SKC,0.15,VWS V14.01,2013-04-13 04:30:00,
2013-04-12 23:35:00,28.5,25.4,29.83,NW,313,0.0,0.0,88,0.00,,SKC,0.15,VWS V14.01,2013-04-13 04:35:00,
2013-04-12 23:40:00,28.5,25.4,29.83,NW,313,0.0,0.0,88,0.00,,SKC,0.15,VWS V14.01,2013-04-13 04:40:00,
2013-04-12 23:45:00,28.4,25.3,29.83,NW,313,0.0,0.0,88,0.00,,SKC,0.15,VWS V14.01,2013-04-13 04:45:00,
2013-04-12 23:50:00,28.4,25.6,29.83,NW,313,0.0,0.0,89,0.00,,SKC,0.15,VWS V14.01,2013-04-13 04:50:00,
2013-04-12 23:55:00,28.3,25.5,29.83,NW,313,0.0,0.0,89,0.00,,SKC,0.15,VWS V14.01,2013-04-13 04:55:00,